Weather History for Williams, AZ

Change the Weather History Date:

Tuesday, December 3, 2013

  Actual Average (KFLG) Record (KFLG)
Temperature  
Mean Temperature 44 °F 31 °F  
Max Temperature 50 °F 44 °F 67 °F (1977)
Min Temperature 39 °F 18 °F -2 °F (1968)
Degree Days  
Heating Degree Days 20 34  
Month to date heating degree days 101  
Since 1 July heating degree days 1833  
Cooling Degree Days 0 0  
Month to date cooling degree days 0  
Year to date cooling degree days 117  
Moisture  
Dew Point 20 °F    
Average Humidity 40    
Maximum Humidity 65    
Minimum Humidity 25    
Precipitation  
Precipitation 0.00 in 0.05 in 1.33 in (1908)
Month to date precipitation 0.16  
Year to date precipitation 20.15  
Snow  
Snow 0.00 in 0.50 in 6.10 in (1961)
Month to date snowfall 1.4  
Since 1 July snowfall 13.6  
Snow Depth -    
Sea Level Pressure  
Sea Level Pressure 29.84 in    
Wind  
Wind Speed 18 mph (South)    
Max Wind Speed 36 mph    
Max Gust Speed 45 mph    
Visibility 10 miles    
Events      
T = Trace of Precipitation, MM = Missing Value Source: NWS Daily Summary

Daily Weather History Graph

Daily Weather History Graph

Search for Another Location

Airport:

Trip Planner

Search our weather history database for the weather conditions in past years. The results will help you decide how hot, cold, wet, or windy it might be!

Date:

Astronomy

Dec. 03, 2013 Rise Set
Actual Time 7:21 AM MST 5:16 PM MST
Civil Twilight 6:53 AM MST 5:44 PM MST
Nautical Twilight 6:21 AM MST 6:15 PM MST
Astronomical Twilight 5:51 AM MST 6:46 PM MST
Moon 7:55 AM MST (12/3) 6:22 PM MST (12/3)
Length of Visible Light 10h 50m
Length of Day
9h 54m
New Moon, 1% of the Moon is Illuminated
Dec 3
New Moon
Dec 9
First Quarter
Dec 17
Full
Dec 25
Last Quarter
Jan 1
New

Hourly Weather History & Observations

Time (MST) Temp. Windchill Dew Point Humidity Pressure Visibility Wind Dir Wind Speed Gust Speed Precip Events Conditions
12:15 AM 44.6 °F 37.8 °F 10.4 °F 25% 30.01 in 10.0 mi SSW 15.0 mph 21.9 mph N/A   Clear
12:35 AM 44.6 °F 38.4 °F 10.4 °F 25% 30.00 in 10.0 mi SSW 12.7 mph 19.6 mph N/A   Clear
12:55 AM 44.6 °F 39.7 °F 10.4 °F 25% 29.99 in 10.0 mi SSW 9.2 mph - N/A   Clear
1:15 AM 44.6 °F 38.4 °F 10.4 °F 25% 29.99 in 10.0 mi SSW 12.7 mph 23.0 mph N/A   Clear
1:35 AM 42.8 °F 35.4 °F 12.2 °F 29% 29.97 in 10.0 mi South 15.0 mph 20.7 mph N/A   Clear
1:55 AM 42.8 °F 36.2 °F 14.0 °F 31% 29.96 in 10.0 mi South 12.7 mph 23.0 mph N/A   Clear
2:15 AM 44.6 °F 37.2 °F 14.0 °F 29% 29.95 in 10.0 mi SSW 17.3 mph 26.5 mph N/A   Clear
2:35 AM 44.6 °F 37.2 °F 14.0 °F 29% 29.95 in 10.0 mi SSW 17.3 mph 26.5 mph N/A   Clear
2:55 AM 44.6 °F 37.8 °F 15.8 °F 31% 29.94 in 10.0 mi SSW 15.0 mph 25.3 mph N/A   Clear
3:15 AM 44.6 °F 36.9 °F 15.8 °F 31% 29.94 in 10.0 mi SSW 18.4 mph 27.6 mph N/A   Clear
3:35 AM 44.6 °F 36.9 °F 15.8 °F 31% 29.93 in 10.0 mi SSW 18.4 mph 29.9 mph N/A   Clear
3:55 AM 44.6 °F 36.6 °F 15.8 °F 31% 29.93 in 10.0 mi SSW 19.6 mph 28.8 mph N/A   Clear
4:15 AM 42.8 °F 34.3 °F 15.8 °F 34% 29.92 in 10.0 mi SSW 19.6 mph 29.9 mph N/A   Clear
4:35 AM 41.0 °F 32.5 °F 15.8 °F 36% 29.91 in 10.0 mi SSW 17.3 mph 26.5 mph N/A   Clear
4:55 AM 41.0 °F 31.6 °F 15.8 °F 36% 29.90 in 10.0 mi SSW 20.7 mph 25.3 mph N/A   Clear
5:15 AM 41.0 °F 31.9 °F 15.8 °F 36% 29.89 in 10.0 mi SSW 19.6 mph 31.1 mph N/A   Clear
5:35 AM 41.0 °F 31.9 °F 15.8 °F 36% 29.90 in 10.0 mi SSW 19.6 mph 29.9 mph N/A   Clear
5:55 AM 41.0 °F 31.4 °F 15.8 °F 36% 29.90 in 10.0 mi SSW 21.9 mph 27.6 mph N/A   Clear
6:15 AM 39.2 °F 30.5 °F 15.8 °F 39% 29.90 in 10.0 mi South 16.1 mph 24.2 mph N/A   Clear
6:35 AM 41.0 °F 32.8 °F 15.8 °F 36% 29.91 in 10.0 mi South 16.1 mph 23.0 mph N/A   Clear
6:55 AM 39.2 °F 32.0 °F 15.8 °F 39% 29.91 in 10.0 mi South 11.5 mph 20.7 mph N/A   Clear
7:15 AM 39.2 °F 31.6 °F 15.8 °F 39% 29.92 in 10.0 mi South 12.7 mph - N/A   Clear
7:35 AM 39.2 °F 30.5 °F 15.8 °F 39% 29.92 in 10.0 mi South 16.1 mph 21.9 mph N/A   Clear
7:55 AM 39.2 °F 31.6 °F 17.6 °F 42% 29.92 in 10.0 mi South 12.7 mph 18.4 mph N/A   Clear
8:15 AM 41.0 °F 33.1 °F 17.6 °F 39% 29.92 in 10.0 mi South 15.0 mph 21.9 mph N/A   Clear
8:35 AM 41.0 °F 33.1 °F 17.6 °F 39% 29.92 in 10.0 mi South 15.0 mph - N/A   Clear
8:55 AM 44.6 °F 38.1 °F 15.8 °F 31% 29.92 in 10.0 mi South 13.8 mph 20.7 mph N/A   Clear
9:15 AM 44.6 °F 39.2 °F 17.6 °F 34% 29.93 in 10.0 mi SSW 10.4 mph 18.4 mph N/A   Clear
9:35 AM 46.4 °F 40.1 °F 17.6 °F 32% 29.93 in 10.0 mi South 15.0 mph 24.2 mph N/A   Clear
9:55 AM 44.6 °F 37.8 °F 17.6 °F 34% 29.92 in 10.0 mi South 15.0 mph 20.7 mph N/A   Clear
10:15 AM 46.4 °F 40.1 °F 15.8 °F 29% 29.91 in 10.0 mi South 15.0 mph 24.2 mph N/A   Clear
10:35 AM 46.4 °F 40.7 °F 17.6 °F 32% 29.91 in 10.0 mi South 12.7 mph 25.3 mph N/A   Clear
10:55 AM 48.2 °F - 15.8 °F 27% 29.90 in 10.0 mi South 17.3 mph 26.5 mph N/A   Clear
11:15 AM 48.2 °F - 15.8 °F 27% 29.89 in 10.0 mi South 18.4 mph 28.8 mph N/A   Clear
11:35 AM 50.0 °F - 15.8 °F 26% 29.88 in 10.0 mi SSW 16.1 mph 31.1 mph N/A   Clear
11:55 AM 48.2 °F - 17.6 °F 30% 29.87 in 10.0 mi South 18.4 mph 25.3 mph N/A   Clear
12:15 PM 48.2 °F - 17.6 °F 30% 29.84 in 10.0 mi South 16.1 mph 29.9 mph N/A   Clear
12:35 PM 48.2 °F - 19.4 °F 32% 29.82 in 10.0 mi SSW 20.7 mph 36.8 mph N/A   Clear
12:55 PM 48.2 °F - 21.2 °F 34% 29.79 in 10.0 mi SSW 24.2 mph 36.8 mph N/A   Clear
1:15 PM 48.2 °F - 23.0 °F 37% 29.78 in 10.0 mi South 29.9 mph 39.1 mph N/A   Clear
1:35 PM 48.2 °F - 23.0 °F 37% 29.77 in 10.0 mi South 28.8 mph 40.3 mph N/A   Clear
1:55 PM 48.2 °F - 24.8 °F 40% 29.77 in 10.0 mi South 26.5 mph 36.8 mph N/A   Clear
2:15 PM 48.2 °F - 23.0 °F 37% 29.77 in 10.0 mi South 23.0 mph 35.7 mph N/A   Clear
2:35 PM 50.0 °F - 23.0 °F 35% 29.76 in 10.0 mi SSW 27.6 mph 38.0 mph N/A   Clear
2:55 PM 48.2 °F - 24.8 °F 40% 29.76 in 10.0 mi SSW 26.5 mph 42.6 mph N/A   Clear
3:15 PM 48.2 °F - 24.8 °F 40% 29.75 in 10.0 mi South 23.0 mph 39.1 mph N/A   Clear
3:35 PM 48.2 °F - 23.0 °F 37% 29.74 in 10.0 mi South 27.6 mph 41.4 mph N/A   Clear
3:55 PM 46.4 °F 37.4 °F 23.0 °F 40% 29.75 in 10.0 mi South 28.8 mph 41.4 mph N/A   Clear
4:15 PM 46.4 °F 37.9 °F 23.0 °F 40% 29.74 in 10.0 mi South 25.3 mph 38.0 mph N/A   Clear
4:35 PM 44.6 °F 35.5 °F 23.0 °F 43% 29.74 in 10.0 mi South 25.3 mph 40.3 mph N/A   Clear
5:15 PM 44.6 °F 36.1 °F 23.0 °F 43% 29.73 in 10.0 mi South 21.9 mph 39.1 mph N/A   Clear
5:35 PM 44.6 °F 35.5 °F 24.8 °F 46% 29.72 in 10.0 mi South 25.3 mph 39.1 mph N/A   Clear
5:55 PM 44.6 °F 35.9 °F 23.0 °F 43% 29.73 in 10.0 mi South 23.0 mph 34.5 mph N/A   Clear
6:15 PM 44.6 °F 36.1 °F 24.8 °F 46% 29.73 in 10.0 mi SSW 21.9 mph 38.0 mph N/A   Clear
6:35 PM 42.8 °F 33.8 °F 24.8 °F 49% 29.74 in 10.0 mi South 21.9 mph 32.2 mph N/A   Clear
6:55 PM 41.0 °F 30.5 °F 24.8 °F 53% 29.75 in 10.0 mi SSW 26.5 mph 35.7 mph N/A   Clear
7:15 PM 41.0 °F 32.5 °F 24.8 °F 53% 29.76 in 10.0 mi South 17.3 mph 28.8 mph N/A   Clear
7:35 PM 41.0 °F 31.6 °F 24.8 °F 53% 29.75 in 10.0 mi South 20.7 mph 29.9 mph N/A   Clear
7:55 PM 39.2 °F 30.8 °F 24.8 °F 56% 29.76 in 10.0 mi South 15.0 mph 26.5 mph N/A   Clear
8:15 PM 39.2 °F 28.7 °F 24.8 °F 56% 29.74 in 10.0 mi South 23.0 mph 29.9 mph N/A   Clear
8:35 PM 39.2 °F 28.0 °F 24.8 °F 56% 29.74 in 10.0 mi South 26.5 mph 34.5 mph N/A   Clear
8:55 PM 39.2 °F 28.7 °F 23.0 °F 52% 29.74 in 10.0 mi South 23.0 mph 41.4 mph N/A   Clear
9:15 PM 39.2 °F 27.6 °F 23.0 °F 52% 29.72 in 10.0 mi South 28.8 mph 40.3 mph N/A   Clear
9:35 PM 39.2 °F 26.8 °F 23.0 °F 52% 29.72 in 10.0 mi South 33.4 mph 43.7 mph N/A   Clear
9:55 PM 39.2 °F 26.5 °F 23.0 °F 52% 29.72 in 10.0 mi South 35.7 mph 42.6 mph N/A   Clear
10:15 PM 39.2 °F 27.0 °F 24.8 °F 56% 29.72 in 10.0 mi South 32.2 mph 40.3 mph N/A   Clear
10:35 PM 39.2 °F 27.2 °F 24.8 °F 56% 29.72 in 10.0 mi South 31.1 mph 42.6 mph N/A   Clear
10:55 PM 39.2 °F 27.0 °F 24.8 °F 56% 29.71 in 10.0 mi South 32.2 mph 44.9 mph N/A   Clear
11:15 PM 39.2 °F 27.8 °F 26.6 °F 61% 29.72 in 10.0 mi South 27.6 mph 40.3 mph N/A   Clear
11:35 PM 39.2 °F 27.8 °F 26.6 °F 61% 29.72 in 10.0 mi South 27.6 mph 40.3 mph N/A   Clear
11:55 PM 39.2 °F 27.8 °F 28.4 °F 65% 29.72 in 10.0 mi South 27.6 mph 41.4 mph N/A   Partly Cloudy